{"data":{"norad_id":69264,"intl_designator":"2026-117AC","name":"STARLINK-37486","alt_names":[],"object_type":"PAYLOAD","status":"ACTIVE","operator":null,"country":"US","launch_date":"2026-05-29","launch_site_code":"AFETR","launch_vehicle":null,"mission":null,"orbit_class":"UNKNOWN","rcs_meters":null,"size_class":null,"mass_kg":null,"dimensions":null,"purposes":["comms"],"wikipedia_slug":null,"has_3d_model":false,"image_url":null,"decayed_at":null,"tle_current":{"epoch":"2026-09-19T23:16:40.084896Z","epoch_age_seconds":74766,"freshness":"FRESH","line1":"1 69264U 26117AC  26262.96990839  .00019921  00000+0  59912-3 0  9995","line2":"2 69264  53.1586 156.3537 0000354  75.3690 284.7352 15.34401887 17582","mean_motion":15.34401887,"eccentricity":3.54e-5,"inclination_deg":53.1586,"raan_deg":156.3537,"arg_perigee_deg":75.369,"mean_anomaly_deg":284.7352,"bstar":0.00059912,"rev_number":1758,"period_min":93.847642667817,"perigee_km":462.45546610523,"apogee_km":462.93979719715,"semimajor_km":6840.8346316512,"source":"CELESTRAK","updated_at":"2026-09-20T09:00:44.153023Z"}}}